START_TIME,STEP,MOV.,M34,t_acc.,L5,t_acc.,L18,t_acc.,L14,t_acc.
1986-01-25 18:00:26.070 ,6,0,0.,12.0,0.,12.0,0.,12.0,0.,12.0
1986-01-25 18:00:38.070 ,6,0,0.,12.0,0.,12.0,0.,12.0,1.,12.0
1986-01-25 18:00:50.070 ,5,1,0.,12.0,0.,12.0,0.,12.0,0.,12.0
1986-01-25 18:01:02.070 ,5,1,0.,12.0,0.,12.0,0.,12.0,0.,12.0
1986-01-25 18:01:14.070 ,5,0,0.,12.0,0.,12.0,0.,12.0,0.,12.0
1986-01-25 18:01:26.070 ,5,0,0.,12.0,0.,12.0,0.,12.0,0.,12.0
1986-01-25 18:01:38.070 ,4,1,0.,12.0,0.,12.0,0.,12.0,0.,12.0
1986-01-25 18:01:50.070 ,4,1,0.,12.0,0.,12.0,0.,12.0,0.,12.0
1986-01-25 18:02:02.070 ,4,0,0.,12.0,0.,12.0,0.,12.0,0.,12.0
1986-01-25 18:02:14.070 ,4,0,0.,12.0,0.,12.0,0.,12.0,0.,12.0
1986-01-25 18:02:26.070 ,3,1,0.,12.0,0.,12.0,0.,12.0,0.,12.0
1986-01-25 18:02:38.070 ,3,1,0.,12.0,0.,12.0,0.,12.0,0.,12.0
1986-01-25 18:02:50.070 ,3,0,0.,12.0,0.,12.0,0.,12.0,0.,12.0
1986-01-25 18:03:02.070 ,3,0,0.,12.0,0.,12.0,0.,12.0,0.,12.0
1986-01-25 18:03:14.070 ,2,1,0.,12.0,0.,12.0,0.,12.0,0.,12.0
1986-01-25 18:03:26.070 ,2,1,0.,12.0,0.,12.0,0.,12.0,0.,12.0
1986-01-25 18:03:38.070 ,2,0,0.,12.0,0.,12.0,0.,12.0,2.,12.0
1986-01-25 18:03:50.070 ,2,0,0.,12.0,0.,12.0,0.,12.0,0.,12.0
1986-01-25 18:04:02.070 ,1,1,0.,12.0,0.,12.0,0.,12.0,0.,12.0
1986-01-25 18:04:14.070 ,1,1,0.,12.0,0.,12.0,0.,12.0,0.,12.0
1986-01-25 18:04:26.070 ,1,0,0.,12.0,0.,12.0,0.,12.0,0.,12.0
1986-01-25 18:04:38.070 ,1,0,0.,12.0,0.,12.0,0.,12.0,1.,12.0
1986-01-25 18:04:50.070 ,0,1,0.,12.0,0.,12.0,0.,12.0,1.,12.0
1986-01-25 18:05:02.070 ,0,1,0.,12.0,0.,12.0,0.,12.0,0.,12.0
1986-01-25 18:05:14.070 ,0,0,0.,12.0,0.,12.0,0.,12.0,0.,12.0
1986-01-25 18:05:26.070 ,0,0,0.,12.0,0.,12.0,0.,12.0,0.,12.0
1986-01-25 18:05:38.070 ,0,1,0.,12.0,0.,12.0,0.,12.0,0.,12.0
1986-01-25 18:05:50.070 ,0,1,0.,12.0,0.,12.0,0.,12.0,0.,12.0
1986-01-25 18:06:02.070 ,0,0,0.,12.0,0.,12.0,0.,12.0,1.,12.0
1986-01-25 18:06:14.070 ,0,0,0.,12.0,0.,12.0,0.,12.0,0.,12.0
1986-01-25 18:06:26.070 ,1,1,0.,12.0,0.,12.0,0.,12.0,1.,12.0
1986-01-25 18:06:38.070 ,1,1,0.,12.0,0.,12.0,0.,12.0,0.,12.0
1986-01-25 18:06:50.070 ,1,0,0.,12.0,0.,12.0,0.,12.0,0.,12.0
1986-01-25 18:07:02.070 ,1,0,0.,12.0,0.,12.0,0.,12.0,1.,12.0
1986-01-25 18:07:14.070 ,2,1,0.,12.0,0.,12.0,0.,12.0,0.,12.0
1986-01-25 18:07:26.070 ,2,1,0.,12.0,0.,12.0,0.,12.0,0.,12.0
1986-01-25 18:07:38.070 ,2,0,0.,12.0,0.,12.0,0.,12.0,1.,12.0
1986-01-25 18:07:50.070 ,2,0,0.,12.0,0.,12.0,0.,12.0,1.,12.0
1986-01-25 18:08:02.070 ,3,1,0.,12.0,0.,12.0,0.,12.0,0.,12.0
1986-01-25 18:08:14.070 ,3,1,0.,12.0,0.,12.0,0.,12.0,0.,12.0
1986-01-25 18:08:26.070 ,3,0,0.,12.0,0.,12.0,0.,12.0,0.,12.0
1986-01-25 18:08:38.070 ,3,0,0.,12.0,0.,12.0,0.,12.0,0.,12.0
1986-01-25 18:08:50.070 ,4,1,0.,12.0,0.,12.0,0.,12.0,0.,12.0
1986-01-25 18:09:02.070 ,4,1,0.,12.0,0.,12.0,0.,12.0,0.,12.0
1986-01-25 18:09:14.070 ,4,0,0.,12.0,0.,12.0,0.,12.0,0.,12.0
1986-01-25 18:09:26.070 ,4,0,0.,12.0,0.,12.0,0.,12.0,0.,12.0
1986-01-25 18:09:38.070 ,5,1,0.,12.0,0.,12.0,0.,12.0,0.,12.0
1986-01-25 18:09:50.070 ,5,1,0.,12.0,0.,12.0,0.,12.0,0.,12.0
1986-01-25 18:10:02.070 ,5,0,0.,12.0,0.,12.0,0.,12.0,0.,12.0
1986-01-25 18:10:14.070 ,5,0,0.,12.0,0.,12.0,0.,12.0,0.,12.0
1986-01-25 18:10:26.070 ,6,1,0.,12.0,0.,12.0,0.,12.0,1.,12.0
1986-01-25 18:10:38.070 ,6,1,0.,12.0,0.,12.0,0.,12.0,0.,12.0
1986-01-25 18:10:50.070 ,6,0,0.,12.0,0.,12.0,0.,12.0,1.,12.0
1986-01-25 18:11:02.070 ,6,0,0.,12.0,0.,12.0,0.,12.0,0.,12.0
1986-01-25 18:11:14.070 ,7,1,0.,12.0,0.,12.0,0.,12.0,0.,12.0
1986-01-25 18:11:26.070 ,7,1,0.,12.0,0.,12.0,0.,12.0,0.,12.0
1986-01-25 18:11:38.070 ,7,0,0.,12.0,0.,12.0,0.,12.0,1.,12.0
1986-01-25 18:11:50.070 ,7,0,0.,12.0,0.,12.0,0.,12.0,0.,12.0
1986-01-25 18:12:02.070 ,7,1,0.,12.0,0.,12.0,0.,12.0,0.,12.0
1986-01-25 18:12:14.070 ,7,1,0.,12.0,0.,12.0,0.,12.0,0.,12.0
1986-01-25 18:12:26.070 ,7,0,0.,12.0,0.,12.0,0.,12.0,1.,12.0
1986-01-25 18:12:38.070 ,7,0,0.,12.0,0.,12.0,0.,12.0,0.,12.0
1986-01-25 18:12:50.070 ,6,1,0.,12.0,0.,12.0,0.,12.0,0.,12.0
1986-01-25 18:13:02.070 ,6,1,0.,12.0,0.,12.0,0.,12.0,0.,12.0
1986-01-25 18:13:14.070 ,6,0,0.,12.0,0.,12.0,0.,12.0,0.,12.0
1986-01-25 18:13:26.070 ,6,0,0.,12.0,0.,12.0,0.,12.0,0.,12.0
1986-01-25 18:13:38.070 ,5,1,0.,12.0,0.,12.0,0.,12.0,0.,12.0
1986-01-25 18:13:50.070 ,5,1,0.,12.0,0.,12.0,0.,12.0,0.,12.0
1986-01-25 18:14:02.070 ,5,0,0.,12.0,0.,12.0,0.,12.0,2.,12.0
1986-01-25 18:14:14.070 ,5,0,0.,12.0,0.,12.0,0.,12.0,0.,12.0
1986-01-25 18:14:26.070 ,4,1,0.,12.0,0.,12.0,0.,12.0,1.,12.0
1986-01-25 18:14:38.070 ,4,1,0.,12.0,0.,12.0,0.,12.0,0.,12.0
1986-01-25 18:14:50.070 ,4,0,0.,12.0,0.,12.0,0.,12.0,0.,12.0
1986-01-25 18:15:02.070 ,4,0,0.,12.0,0.,12.0,0.,12.0,0.,12.0
1986-01-25 18:15:14.070 ,3,1,0.,12.0,0.,12.0,0.,12.0,0.,12.0
1986-01-25 18:15:26.070 ,3,1,0.,12.0,0.,12.0,0.,12.0,1.,12.0
1986-01-25 18:15:38.070 ,3,0,0.,12.0,0.,12.0,0.,12.0,0.,12.0
1986-01-25 18:15:50.070 ,3,0,0.,12.0,0.,12.0,0.,12.0,0.,12.0
1986-01-25 18:16:02.070 ,2,1,0.,12.0,0.,12.0,0.,12.0,0.,12.0
1986-01-25 18:16:14.070 ,2,1,0.,12.0,0.,12.0,0.,12.0,0.,12.0
1986-01-25 18:16:26.070 ,2,0,0.,12.0,0.,12.0,0.,12.0,0.,12.0
1986-01-25 18:16:38.070 ,2,0,0.,12.0,0.,12.0,0.,12.0,0.,12.0
1986-01-25 18:16:50.070 ,1,1,0.,12.0,0.,12.0,0.,12.0,0.,12.0
1986-01-25 18:17:02.070 ,1,1,0.,12.0,0.,12.0,0.,12.0,0.,12.0
1986-01-25 18:17:14.070 ,1,0,0.,12.0,0.,12.0,0.,12.0,0.,12.0
1986-01-25 18:17:26.070 ,1,0,0.,12.0,0.,12.0,0.,12.0,0.,12.0
1986-01-25 18:17:38.070 ,0,1,0.,12.0,0.,12.0,0.,12.0,0.,12.0
1986-01-25 18:17:50.070 ,0,1,0.,12.0,0.,12.0,0.,12.0,0.,12.0
1986-01-25 18:18:02.070 ,0,0,0.,12.0,0.,12.0,0.,12.0,0.,12.0
1986-01-25 18:18:14.070 ,0,0,0.,12.0,0.,12.0,0.,12.0,0.,12.0
1986-01-25 18:18:26.060 ,0,1,0.,12.0,0.,12.0,0.,12.0,0.,12.0
1986-01-25 18:18:38.060 ,0,1,0.,12.0,0.,12.0,0.,12.0,1.,12.0
1986-01-25 18:18:50.060 ,0,0,0.,12.0,0.,12.0,0.,12.0,0.,12.0
1986-01-25 18:19:02.060 ,0,0,0.,12.0,0.,12.0,0.,12.0,0.,12.0
1986-01-25 18:19:14.060 ,1,1,0.,12.0,0.,12.0,0.,12.0,0.,12.0
1986-01-25 18:19:26.060 ,1,1,0.,12.0,0.,12.0,0.,12.0,0.,12.0
1986-01-25 18:19:38.060 ,1,0,0.,12.0,0.,12.0,0.,12.0,0.,12.0
1986-01-25 18:19:50.060 ,1,0,0.,12.0,0.,12.0,0.,12.0,0.,12.0
1986-01-25 18:20:02.060 ,2,1,0.,12.0,0.,12.0,0.,12.0,0.,12.0
1986-01-25 18:20:14.060 ,2,1,0.,12.0,0.,12.0,0.,12.0,0.,12.0
1986-01-25 18:20:26.060 ,2,0,0.,12.0,0.,12.0,0.,12.0,0.,12.0
1986-01-25 18:20:38.060 ,2,0,0.,12.0,0.,12.0,0.,12.0,0.,12.0
1986-01-25 18:20:50.060 ,3,1,0.,12.0,0.,12.0,0.,12.0,0.,12.0
1986-01-25 18:21:02.060 ,3,1,0.,12.0,0.,12.0,0.,12.0,1.,12.0
1986-01-25 18:21:14.060 ,3,0,0.,12.0,0.,12.0,0.,12.0,1.,12.0
1986-01-25 18:21:26.060 ,3,0,0.,12.0,0.,12.0,0.,12.0,0.,12.0
1986-01-25 18:21:38.060 ,4,1,0.,12.0,0.,12.0,0.,12.0,1.,12.0
1986-01-25 18:21:50.060 ,4,1,0.,12.0,0.,12.0,0.,12.0,0.,12.0
1986-01-25 18:22:02.060 ,4,0,0.,12.0,0.,12.0,0.,12.0,0.,12.0
1986-01-25 18:22:14.060 ,4,0,0.,12.0,0.,12.0,0.,12.0,0.,12.0
1986-01-25 18:22:26.060 ,5,1,0.,12.0,0.,12.0,0.,12.0,0.,12.0
1986-01-25 18:22:38.060 ,5,1,0.,12.0,0.,12.0,0.,12.0,0.,12.0
1986-01-25 18:22:50.060 ,5,0,0.,12.0,0.,12.0,0.,12.0,0.,12.0
1986-01-25 18:23:02.060 ,5,0,0.,12.0,0.,12.0,0.,12.0,1.,12.0
1986-01-25 18:23:14.060 ,6,1,0.,12.0,0.,12.0,0.,12.0,0.,12.0
1986-01-25 18:23:26.060 ,6,1,0.,12.0,0.,12.0,0.,12.0,2.,12.0
1986-01-25 18:23:38.060 ,6,0,0.,12.0,0.,12.0,0.,12.0,0.,12.0
1986-01-25 18:23:50.060 ,6,0,0.,12.0,0.,12.0,0.,12.0,0.,12.0
1986-01-25 18:24:02.060 ,7,1,0.,12.0,0.,12.0,0.,12.0,0.,12.0
1986-01-25 18:24:14.060 ,7,1,0.,12.0,0.,12.0,0.,12.0,1.,12.0
1986-01-25 18:24:26.060 ,7,0,0.,12.0,0.,12.0,0.,12.0,0.,12.0
1986-01-25 18:24:38.060 ,7,0,0.,12.0,0.,12.0,0.,12.0,0.,12.0
1986-01-25 18:24:50.060 ,7,1,0.,12.0,0.,12.0,0.,12.0,0.,12.0
1986-01-25 18:25:02.060 ,7,1,0.,12.0,0.,12.0,0.,12.0,0.,12.0
1986-01-25 18:25:14.060 ,7,0,0.,12.0,0.,12.0,0.,12.0,1.,12.0
1986-01-25 18:25:26.060 ,7,0,0.,12.0,0.,12.0,0.,12.0,0.,12.0
1986-01-25 18:25:38.060 ,6,1,0.,12.0,0.,12.0,0.,12.0,0.,12.0
1986-01-25 18:25:50.060 ,6,1,0.,12.0,0.,12.0,0.,12.0,0.,12.0
1986-01-25 18:26:02.060 ,6,0,0.,12.0,0.,12.0,0.,12.0,0.,12.0
1986-01-25 18:26:14.060 ,6,0,0.,12.0,0.,12.0,0.,12.0,0.,12.0
1986-01-25 18:26:26.060 ,5,1,0.,12.0,0.,12.0,0.,12.0,0.,12.0
1986-01-25 18:26:38.060 ,5,1,0.,12.0,0.,12.0,0.,12.0,0.,12.0
1986-01-25 18:26:50.060 ,5,0,0.,12.0,0.,12.0,0.,12.0,0.,12.0
1986-01-25 18:27:02.060 ,5,0,0.,12.0,0.,12.0,0.,12.0,0.,12.0
1986-01-25 18:27:14.060 ,4,1,0.,12.0,0.,12.0,0.,12.0,1.,12.0
1986-01-25 18:27:26.060 ,4,1,0.,12.0,0.,12.0,0.,12.0,0.,12.0
1986-01-25 18:27:38.060 ,4,0,0.,12.0,0.,12.0,0.,12.0,1.,12.0
1986-01-25 18:27:50.060 ,4,0,0.,12.0,0.,12.0,0.,12.0,1.,12.0
1986-01-25 18:28:02.060 ,3,1,0.,12.0,0.,12.0,0.,12.0,1.,12.0
1986-01-25 18:28:14.060 ,3,1,0.,12.0,0.,12.0,0.,12.0,0.,12.0
1986-01-25 18:28:26.060 ,3,0,0.,12.0,0.,12.0,0.,12.0,0.,12.0
1986-01-25 18:28:38.060 ,3,0,0.,12.0,0.,12.0,0.,12.0,0.,12.0
1986-01-25 18:28:50.060 ,2,1,0.,12.0,0.,12.0,0.,12.0,0.,12.0
1986-01-25 18:29:02.060 ,2,1,0.,12.0,0.,12.0,0.,12.0,0.,12.0
1986-01-25 18:29:14.060 ,2,0,0.,12.0,0.,12.0,0.,12.0,0.,12.0
1986-01-25 18:29:26.060 ,2,0,0.,12.0,0.,12.0,0.,12.0,0.,12.0
1986-01-25 18:29:38.060 ,1,1,0.,12.0,0.,12.0,0.,12.0,0.,12.0
1986-01-25 18:29:50.060 ,1,1,0.,12.0,0.,12.0,0.,12.0,0.,12.0
1986-01-25 18:30:02.060 ,1,0,0.,12.0,0.,12.0,0.,12.0,0.,12.0
1986-01-25 18:30:14.060 ,1,0,0.,12.0,0.,12.0,0.,12.0,0.,12.0
1986-01-25 18:30:26.060 ,0,1,0.,12.0,0.,12.0,0.,12.0,0.,12.0
1986-01-25 18:30:38.060 ,0,1,0.,12.0,0.,12.0,0.,12.0,0.,12.0
1986-01-25 18:30:50.060 ,0,0,0.,12.0,0.,12.0,0.,12.0,1.,12.0
1986-01-25 18:31:02.060 ,0,0,0.,12.0,0.,12.0,0.,12.0,0.,12.0
1986-01-25 18:31:14.060 ,0,1,0.,12.0,0.,12.0,0.,12.0,0.,12.0
1986-01-25 18:31:26.060 ,0,1,0.,12.0,0.,12.0,0.,12.0,0.,12.0
1986-01-25 18:31:38.060 ,0,0,0.,12.0,0.,12.0,0.,12.0,0.,12.0
1986-01-25 18:31:50.060 ,0,0,0.,12.0,0.,12.0,0.,12.0,0.,12.0
1986-01-25 18:32:02.060 ,1,1,0.,12.0,0.,12.0,0.,12.0,0.,12.0
1986-01-25 18:32:14.060 ,1,1,0.,12.0,0.,12.0,0.,12.0,0.,12.0
1986-01-25 18:32:26.060 ,1,0,0.,12.0,0.,12.0,0.,12.0,1.,12.0
1986-01-25 18:32:38.060 ,1,0,0.,12.0,0.,12.0,0.,12.0,0.,12.0
1986-01-25 18:32:50.060 ,2,1,0.,12.0,0.,12.0,0.,12.0,0.,12.0
1986-01-25 18:33:02.060 ,2,1,0.,12.0,0.,12.0,0.,12.0,0.,12.0
1986-01-25 18:33:14.060 ,2,0,0.,12.0,0.,12.0,0.,12.0,0.,12.0
1986-01-25 18:33:26.060 ,2,0,0.,12.0,0.,12.0,0.,12.0,0.,12.0
1986-01-25 18:33:38.060 ,3,1,0.,12.0,0.,12.0,0.,12.0,0.,12.0
1986-01-25 18:33:50.060 ,3,1,0.,12.0,0.,12.0,0.,12.0,0.,12.0
1986-01-25 18:34:02.060 ,3,0,0.,12.0,0.,12.0,0.,12.0,0.,12.0
1986-01-25 18:34:14.060 ,3,0,0.,12.0,0.,12.0,0.,12.0,0.,12.0
1986-01-25 18:34:26.060 ,4,1,0.,12.0,0.,12.0,0.,12.0,2.,12.0
1986-01-25 18:34:38.060 ,4,1,0.,12.0,0.,12.0,0.,12.0,0.,12.0
1986-01-25 18:34:50.060 ,4,0,0.,12.0,0.,12.0,0.,12.0,0.,12.0
1986-01-25 18:35:02.060 ,4,0,0.,12.0,0.,12.0,0.,12.0,0.,12.0
1986-01-25 18:35:14.060 ,5,1,0.,12.0,0.,12.0,0.,12.0,1.,12.0
1986-01-25 18:35:26.060 ,5,1,0.,12.0,0.,12.0,0.,12.0,0.,12.0
1986-01-25 18:35:38.060 ,5,0,0.,12.0,0.,12.0,0.,12.0,0.,12.0
1986-01-25 18:35:50.060 ,5,0,0.,12.0,0.,12.0,0.,12.0,0.,12.0
1986-01-25 18:36:02.060 ,6,1,0.,12.0,0.,12.0,0.,12.0,0.,12.0
1986-01-25 18:36:14.060 ,6,1,0.,12.0,0.,12.0,0.,12.0,1.,12.0
1986-01-25 18:36:26.060 ,6,0,0.,12.0,0.,12.0,0.,12.0,0.,12.0
1986-01-25 18:36:38.060 ,6,0,0.,12.0,0.,12.0,0.,12.0,0.,12.0
1986-01-25 18:36:50.060 ,7,1,0.,12.0,0.,12.0,0.,12.0,0.,12.0
1986-01-25 18:37:02.060 ,7,1,0.,12.0,0.,12.0,0.,12.0,0.,12.0
1986-01-25 18:37:14.060 ,7,0,0.,12.0,0.,12.0,0.,12.0,0.,12.0
1986-01-25 18:37:26.060 ,7,0,0.,12.0,0.,12.0,0.,12.0,0.,12.0
1986-01-25 18:37:38.060 ,7,1,0.,12.0,0.,12.0,0.,12.0,0.,12.0
1986-01-25 18:37:50.060 ,7,1,0.,12.0,0.,12.0,0.,12.0,0.,12.0
1986-01-25 18:38:02.060 ,7,0,0.,12.0,0.,12.0,0.,12.0,0.,12.0
1986-01-25 18:38:14.060 ,7,0,0.,12.0,0.,12.0,0.,12.0,0.,12.0
1986-01-25 18:38:26.060 ,6,1,0.,12.0,0.,12.0,0.,12.0,0.,12.0
1986-01-25 18:38:38.060 ,6,1,0.,12.0,0.,12.0,0.,12.0,0.,12.0
1986-01-25 18:38:50.060 ,6,0,0.,12.0,0.,12.0,0.,12.0,1.,12.0
1986-01-25 18:39:02.060 ,6,0,0.,12.0,0.,12.0,0.,12.0,0.,12.0
1986-01-25 18:39:14.060 ,5,1,0.,12.0,0.,12.0,0.,12.0,0.,12.0
1986-01-25 18:39:26.060 ,5,1,0.,12.0,0.,12.0,0.,12.0,0.,12.0
1986-01-25 18:39:38.060 ,5,0,0.,12.0,0.,12.0,0.,12.0,0.,12.0
1986-01-25 18:39:50.060 ,5,0,0.,12.0,0.,12.0,0.,12.0,0.,12.0
1986-01-25 18:40:02.060 ,4,1,0.,12.0,0.,12.0,0.,12.0,0.,12.0
1986-01-25 18:40:14.060 ,4,1,0.,12.0,0.,12.0,0.,12.0,0.,12.0
1986-01-25 18:40:26.060 ,4,0,0.,12.0,0.,12.0,0.,12.0,0.,12.0
1986-01-25 18:40:38.060 ,4,0,0.,12.0,0.,12.0,0.,12.0,0.,12.0
1986-01-25 18:40:50.060 ,3,1,0.,12.0,0.,12.0,0.,12.0,0.,12.0
1986-01-25 18:41:02.060 ,3,1,0.,12.0,0.,12.0,0.,12.0,0.,12.0
1986-01-25 18:41:14.060 ,3,0,0.,12.0,0.,12.0,0.,12.0,1.,12.0
1986-01-25 18:41:26.060 ,3,0,0.,12.0,0.,12.0,0.,12.0,1.,12.0
1986-01-25 18:41:38.060 ,2,1,0.,12.0,0.,12.0,0.,12.0,0.,12.0
1986-01-25 18:41:50.060 ,2,1,0.,12.0,0.,12.0,0.,12.0,0.,12.0
1986-01-25 18:42:02.060 ,2,0,0.,12.0,0.,12.0,0.,12.0,0.,12.0
1986-01-25 18:42:14.060 ,2,0,0.,12.0,0.,12.0,0.,12.0,0.,12.0
1986-01-25 18:42:26.060 ,1,1,0.,12.0,0.,12.0,0.,12.0,2.,12.0
1986-01-25 18:42:38.060 ,1,1,0.,12.0,0.,12.0,0.,12.0,1.,12.0
1986-01-25 18:42:50.060 ,1,0,0.,12.0,0.,12.0,0.,12.0,0.,12.0
1986-01-25 18:43:02.060 ,1,0,0.,12.0,0.,12.0,0.,12.0,0.,12.0
1986-01-25 18:43:14.060 ,0,1,0.,12.0,0.,12.0,0.,12.0,1.,12.0
1986-01-25 18:43:26.060 ,0,1,0.,12.0,0.,12.0,0.,12.0,0.,12.0
1986-01-25 18:43:38.060 ,0,0,0.,12.0,0.,12.0,0.,12.0,0.,12.0
1986-01-25 18:43:50.060 ,0,0,0.,12.0,0.,12.0,0.,12.0,0.,12.0
1986-01-25 18:44:02.060 ,0,1,0.,12.0,0.,12.0,0.,12.0,1.,12.0
1986-01-25 18:44:14.060 ,0,1,0.,12.0,0.,12.0,0.,12.0,0.,12.0
1986-01-25 18:44:26.060 ,0,0,0.,12.0,0.,12.0,0.,12.0,0.,12.0
1986-01-25 18:44:38.060 ,0,0,0.,12.0,0.,12.0,0.,12.0,1.,12.0
1986-01-25 18:44:50.060 ,1,1,0.,12.0,0.,12.0,0.,12.0,0.,12.0
1986-01-25 18:45:02.060 ,1,1,0.,12.0,0.,12.0,0.,12.0,0.,12.0
1986-01-25 18:45:14.060 ,1,0,0.,12.0,0.,12.0,0.,12.0,0.,12.0
1986-01-25 18:45:26.060 ,1,0,0.,12.0,0.,12.0,0.,12.0,0.,12.0
1986-01-25 18:45:38.060 ,2,1,0.,12.0,0.,12.0,0.,12.0,0.,12.0
1986-01-25 18:45:50.060 ,2,1,0.,12.0,0.,12.0,0.,12.0,0.,12.0
1986-01-25 18:46:02.060 ,2,0,0.,12.0,0.,12.0,0.,12.0,0.,12.0
1986-01-25 18:46:14.060 ,2,0,0.,12.0,0.,12.0,0.,12.0,0.,12.0
1986-01-25 18:46:26.060 ,3,1,0.,12.0,0.,12.0,0.,12.0,0.,12.0
1986-01-25 18:46:38.060 ,3,1,0.,12.0,0.,12.0,0.,12.0,1.,12.0
1986-01-25 18:46:50.060 ,3,0,0.,12.0,0.,12.0,0.,12.0,0.,12.0
1986-01-25 18:47:02.060 ,3,0,0.,12.0,0.,12.0,0.,12.0,0.,12.0
1986-01-25 18:47:14.060 ,4,1,0.,12.0,0.,12.0,0.,12.0,0.,12.0
1986-01-25 18:47:26.060 ,4,1,0.,12.0,0.,12.0,0.,12.0,0.,12.0
1986-01-25 18:47:38.060 ,4,0,0.,12.0,0.,12.0,0.,12.0,0.,12.0
1986-01-25 18:47:50.060 ,4,0,0.,12.0,0.,12.0,0.,12.0,1.,12.0
1986-01-25 18:48:02.060 ,5,1,0.,12.0,0.,12.0,0.,12.0,0.,12.0
1986-01-25 18:48:14.060 ,5,1,0.,12.0,0.,12.0,0.,12.0,1.,12.0
1986-01-25 18:48:26.060 ,5,0,0.,12.0,0.,12.0,0.,12.0,0.,12.0
1986-01-25 18:48:38.060 ,5,0,0.,12.0,0.,12.0,0.,12.0,0.,12.0
1986-01-25 18:48:50.060 ,6,1,0.,12.0,0.,12.0,0.,12.0,0.,12.0
1986-01-25 18:49:02.060 ,6,1,0.,12.0,0.,12.0,0.,12.0,0.,12.0
1986-01-25 18:49:14.060 ,6,0,0.,12.0,0.,12.0,0.,12.0,0.,12.0
1986-01-25 18:49:26.060 ,6,0,0.,12.0,0.,12.0,0.,12.0,0.,12.0
1986-01-25 18:49:38.060 ,7,1,0.,12.0,0.,12.0,0.,12.0,0.,12.0
1986-01-25 18:49:50.060 ,7,1,0.,12.0,0.,12.0,0.,12.0,0.,12.0
1986-01-25 18:50:02.060 ,7,0,0.,12.0,0.,12.0,0.,12.0,1.,12.0
1986-01-25 18:50:14.060 ,7,0,0.,12.0,0.,12.0,0.,12.0,0.,12.0
1986-01-25 18:50:26.060 ,7,1,0.,12.0,0.,12.0,0.,12.0,0.,12.0
1986-01-25 18:50:38.060 ,7,1,0.,12.0,0.,12.0,0.,12.0,1.,12.0
1986-01-25 18:50:50.060 ,7,0,0.,12.0,0.,12.0,0.,12.0,1.,12.0
1986-01-25 18:51:02.060 ,7,0,0.,12.0,0.,12.0,0.,12.0,0.,12.0
1986-01-25 18:51:14.060 ,6,1,0.,12.0,0.,12.0,0.,12.0,0.,12.0
1986-01-25 18:51:26.060 ,6,1,0.,12.0,0.,12.0,0.,12.0,1.,12.0
1986-01-25 18:51:38.060 ,6,0,0.,12.0,0.,12.0,0.,12.0,0.,12.0
1986-01-25 18:51:50.060 ,6,0,0.,12.0,0.,12.0,0.,12.0,0.,12.0
1986-01-25 18:52:02.060 ,5,1,0.,12.0,0.,12.0,0.,12.0,1.,12.0
1986-01-25 18:52:14.060 ,5,1,0.,12.0,0.,12.0,0.,12.0,0.,12.0
1986-01-25 18:52:26.060 ,5,0,0.,12.0,0.,12.0,0.,12.0,0.,12.0
1986-01-25 18:52:38.060 ,5,0,0.,12.0,0.,12.0,0.,12.0,0.,12.0
1986-01-25 18:52:50.060 ,4,1,0.,12.0,0.,12.0,0.,12.0,0.,12.0
1986-01-25 18:53:02.060 ,4,1,0.,12.0,0.,12.0,0.,12.0,1.,12.0
1986-01-25 18:53:14.060 ,4,0,0.,12.0,0.,12.0,0.,12.0,1.,12.0
1986-01-25 18:53:26.060 ,4,0,0.,12.0,0.,12.0,0.,12.0,0.,12.0
1986-01-25 18:53:38.060 ,3,1,0.,12.0,0.,12.0,0.,12.0,0.,12.0
1986-01-25 18:53:50.060 ,3,1,0.,12.0,0.,12.0,0.,12.0,0.,12.0
1986-01-25 18:54:02.060 ,3,0,0.,12.0,0.,12.0,0.,12.0,0.,12.0
1986-01-25 18:54:14.060 ,3,0,0.,12.0,0.,12.0,0.,12.0,0.,12.0
1986-01-25 18:54:26.060 ,2,1,0.,12.0,0.,12.0,0.,12.0,0.,12.0
1986-01-25 18:54:38.060 ,2,1,0.,12.0,0.,12.0,0.,12.0,0.,12.0
1986-01-25 18:54:50.060 ,2,0,0.,12.0,0.,12.0,0.,12.0,1.,12.0
1986-01-25 18:55:02.060 ,2,0,0.,12.0,0.,12.0,0.,12.0,0.,12.0
1986-01-25 18:55:14.060 ,1,1,0.,12.0,0.,12.0,0.,12.0,0.,12.0
1986-01-25 18:55:26.060 ,1,1,0.,12.0,0.,12.0,0.,12.0,0.,12.0
1986-01-25 18:55:38.060 ,1,0,0.,12.0,0.,12.0,0.,12.0,0.,12.0
1986-01-25 18:55:50.060 ,1,0,0.,12.0,0.,12.0,0.,12.0,0.,12.0
1986-01-25 18:56:02.060 ,0,1,0.,12.0,0.,12.0,0.,12.0,0.,12.0
1986-01-25 18:56:14.060 ,0,1,0.,12.0,0.,12.0,0.,12.0,1.,12.0
1986-01-25 18:56:26.060 ,0,0,0.,12.0,0.,12.0,0.,12.0,0.,12.0
1986-01-25 18:56:38.060 ,0,0,0.,12.0,0.,12.0,0.,12.0,0.,12.0
1986-01-25 18:56:50.060 ,0,1,0.,12.0,0.,12.0,0.,12.0,1.,12.0
1986-01-25 18:57:02.060 ,0,1,0.,12.0,0.,12.0,0.,12.0,1.,12.0
1986-01-25 18:57:14.060 ,0,0,0.,12.0,0.,12.0,0.,12.0,0.,12.0
1986-01-25 18:57:26.060 ,0,0,0.,12.0,0.,12.0,0.,12.0,0.,12.0
1986-01-25 18:57:38.060 ,1,1,0.,12.0,0.,12.0,0.,12.0,0.,12.0
1986-01-25 18:57:50.060 ,1,1,0.,12.0,0.,12.0,0.,12.0,0.,12.0
1986-01-25 18:58:02.060 ,1,0,0.,12.0,0.,12.0,0.,12.0,0.,12.0
1986-01-25 18:58:14.060 ,1,0,0.,12.0,0.,12.0,0.,12.0,0.,12.0
1986-01-25 18:58:26.060 ,2,1,0.,12.0,0.,12.0,0.,12.0,0.,12.0
1986-01-25 18:58:38.060 ,2,1,0.,12.0,0.,12.0,0.,12.0,0.,12.0
1986-01-25 18:58:50.060 ,2,0,0.,12.0,0.,12.0,0.,12.0,0.,12.0
1986-01-25 18:59:02.060 ,2,0,0.,12.0,0.,12.0,0.,12.0,0.,12.0
1986-01-25 18:59:14.060 ,3,1,0.,12.0,0.,12.0,0.,12.0,1.,12.0
1986-01-25 18:59:26.060 ,3,1,0.,12.0,0.,12.0,0.,12.0,0.,12.0
1986-01-25 18:59:38.060 ,3,0,0.,12.0,0.,12.0,0.,12.0,0.,12.0
1986-01-25 18:59:50.060 ,3,0,0.,12.0,0.,12.0,0.,12.0,0.,12.0
1986-01-25 19:00:02.060 ,4,1,0.,12.0,0.,12.0,0.,12.0,0.,12.0
1986-01-25 19:00:14.060 ,4,1,0.,12.0,0.,12.0,0.,12.0,1.,12.0
1986-01-25 19:00:26.060 ,4,0,0.,12.0,0.,12.0,0.,12.0,0.,12.0
1986-01-25 19:00:38.060 ,4,0,0.,12.0,0.,12.0,0.,12.0,0.,12.0
1986-01-25 19:00:50.060 ,5,1,0.,12.0,0.,12.0,0.,12.0,0.,12.0
1986-01-25 19:01:02.060 ,5,1,0.,12.0,0.,12.0,0.,12.0,1.,12.0
1986-01-25 19:01:14.060 ,5,0,0.,12.0,0.,12.0,0.,12.0,1.,12.0
1986-01-25 19:01:26.060 ,5,0,0.,12.0,0.,12.0,0.,12.0,0.,12.0
1986-01-25 19:01:38.060 ,6,1,0.,12.0,0.,12.0,0.,12.0,0.,12.0
1986-01-25 19:01:50.060 ,6,1,0.,12.0,0.,12.0,0.,12.0,0.,12.0
1986-01-25 19:02:02.060 ,6,0,0.,12.0,0.,12.0,0.,12.0,0.,12.0
1986-01-25 19:02:14.060 ,6,0,0.,12.0,0.,12.0,0.,12.0,1.,12.0
1986-01-25 19:02:26.060 ,7,1,0.,12.0,0.,12.0,0.,12.0,0.,12.0
1986-01-25 19:02:38.060 ,7,1,0.,12.0,0.,12.0,0.,12.0,2.,12.0
1986-01-25 19:02:50.060 ,7,0,0.,12.0,0.,12.0,0.,12.0,0.,12.0
1986-01-25 19:03:02.060 ,7,0,0.,12.0,0.,12.0,0.,12.0,0.,12.0
1986-01-25 19:03:14.060 ,7,1,0.,12.0,0.,12.0,0.,12.0,0.,12.0
1986-01-25 19:03:26.060 ,7,1,0.,12.0,0.,12.0,0.,12.0,0.,12.0
1986-01-25 19:03:38.060 ,7,0,0.,12.0,0.,12.0,0.,12.0,0.,12.0
1986-01-25 19:03:50.060 ,7,0,0.,12.0,0.,12.0,0.,12.0,0.,12.0
1986-01-25 19:04:02.060 ,6,1,0.,12.0,0.,12.0,0.,12.0,0.,12.0
1986-01-25 19:04:14.060 ,6,1,0.,12.0,0.,12.0,0.,12.0,1.,12.0
1986-01-25 19:04:26.060 ,6,0,0.,12.0,0.,12.0,0.,12.0,1.,12.0
1986-01-25 19:04:38.060 ,6,0,0.,12.0,0.,12.0,0.,12.0,2.,12.0
1986-01-25 19:04:50.060 ,5,1,0.,12.0,0.,12.0,0.,12.0,0.,12.0
1986-01-25 19:05:02.060 ,5,1,0.,12.0,0.,12.0,0.,12.0,2.,12.0
1986-01-25 19:05:14.060 ,5,0,0.,12.0,0.,12.0,0.,12.0,0.,12.0
1986-01-25 19:05:26.060 ,5,0,0.,12.0,0.,12.0,0.,12.0,1.,12.0
1986-01-25 19:05:38.060 ,4,1,0.,12.0,0.,12.0,0.,12.0,0.,12.0
1986-01-25 19:05:50.060 ,4,1,0.,12.0,0.,12.0,0.,12.0,1.,12.0
1986-01-25 19:06:02.060 ,4,0,0.,12.0,0.,12.0,0.,12.0,0.,12.0
1986-01-25 19:06:14.060 ,4,0,0.,12.0,0.,12.0,0.,12.0,0.,12.0
1986-01-25 19:06:26.060 ,3,1,0.,12.0,0.,12.0,0.,12.0,0.,12.0
1986-01-25 19:06:38.060 ,3,1,0.,12.0,0.,12.0,0.,12.0,0.,12.0
1986-01-25 19:06:50.060 ,3,0,0.,12.0,0.,12.0,0.,12.0,0.,12.0
1986-01-25 19:07:02.060 ,3,0,0.,12.0,0.,12.0,0.,12.0,0.,12.0
1986-01-25 19:07:14.060 ,2,1,0.,12.0,0.,12.0,0.,12.0,0.,12.0
1986-01-25 19:07:26.060 ,2,1,0.,12.0,0.,12.0,0.,12.0,0.,12.0
1986-01-25 19:07:38.060 ,2,0,0.,12.0,0.,12.0,0.,12.0,0.,12.0
1986-01-25 19:07:50.060 ,2,0,0.,12.0,0.,12.0,0.,12.0,0.,12.0
1986-01-25 19:08:02.060 ,1,1,0.,12.0,0.,12.0,0.,12.0,0.,12.0
1986-01-25 19:08:14.060 ,1,1,0.,12.0,0.,12.0,0.,12.0,0.,12.0
1986-01-25 19:08:26.060 ,1,0,0.,12.0,0.,12.0,0.,12.0,0.,12.0
1986-01-25 19:08:38.060 ,1,0,0.,12.0,0.,12.0,0.,12.0,0.,12.0
1986-01-25 19:08:50.060 ,0,1,0.,12.0,0.,12.0,0.,12.0,0.,12.0
1986-01-25 19:09:02.060 ,0,1,0.,12.0,0.,12.0,0.,12.0,0.,12.0
1986-01-25 19:09:14.060 ,0,0,0.,12.0,0.,12.0,0.,12.0,0.,12.0
1986-01-25 19:09:26.060 ,0,0,0.,12.0,0.,12.0,0.,12.0,0.,12.0
1986-01-25 19:09:38.060 ,0,1,0.,12.0,0.,12.0,0.,12.0,0.,12.0
1986-01-25 19:09:50.060 ,0,1,0.,12.0,0.,12.0,0.,12.0,0.,12.0
1986-01-25 19:10:02.060 ,0,0,0.,12.0,0.,12.0,0.,12.0,0.,12.0
1986-01-25 19:10:14.060 ,0,0,0.,12.0,0.,12.0,0.,12.0,1.,12.0
1986-01-25 19:10:26.060 ,1,1,0.,12.0,0.,12.0,0.,12.0,1.,12.0
1986-01-25 19:10:38.060 ,1,1,0.,12.0,0.,12.0,0.,12.0,0.,12.0
1986-01-25 19:10:50.060 ,1,0,0.,12.0,0.,12.0,0.,12.0,0.,12.0
1986-01-25 19:11:02.060 ,1,0,0.,12.0,0.,12.0,0.,12.0,1.,12.0
1986-01-25 19:11:14.060 ,2,1,0.,12.0,0.,12.0,0.,12.0,0.,12.0
1986-01-25 19:11:26.060 ,2,1,0.,12.0,0.,12.0,0.,12.0,0.,12.0
1986-01-25 19:11:38.060 ,2,0,0.,12.0,0.,12.0,0.,12.0,0.,12.0
1986-01-25 19:11:50.060 ,2,0,0.,12.0,0.,12.0,0.,12.0,0.,12.0
1986-01-25 19:12:02.060 ,3,1,0.,12.0,0.,12.0,0.,12.0,1.,12.0
1986-01-25 19:12:14.060 ,3,1,0.,12.0,0.,12.0,0.,12.0,0.,12.0
1986-01-25 19:12:26.060 ,3,0,0.,12.0,0.,12.0,0.,12.0,0.,12.0
1986-01-25 19:12:38.060 ,3,0,0.,12.0,0.,12.0,0.,12.0,1.,12.0
1986-01-25 19:12:50.060 ,4,1,0.,12.0,0.,12.0,0.,12.0,1.,12.0
1986-01-25 19:13:02.060 ,4,1,0.,12.0,0.,12.0,0.,12.0,0.,12.0
1986-01-25 19:13:14.060 ,4,0,0.,12.0,0.,12.0,0.,12.0,1.,12.0
1986-01-25 19:13:26.060 ,4,0,0.,12.0,0.,12.0,0.,12.0,0.,12.0
1986-01-25 19:13:38.060 ,5,1,0.,12.0,0.,12.0,0.,12.0,0.,12.0
1986-01-25 19:13:50.060 ,5,1,0.,12.0,0.,12.0,0.,12.0,0.,12.0
1986-01-25 19:14:02.060 ,5,0,0.,12.0,0.,12.0,0.,12.0,0.,12.0
1986-01-25 19:14:14.060 ,5,0,0.,12.0,0.,12.0,0.,12.0,1.,12.0
1986-01-25 19:14:26.060 ,6,1,0.,12.0,0.,12.0,0.,12.0,0.,12.0
1986-01-25 19:14:38.060 ,6,1,0.,12.0,0.,12.0,0.,12.0,0.,12.0
1986-01-25 19:14:50.060 ,6,0,0.,12.0,0.,12.0,0.,12.0,0.,12.0
1986-01-25 19:15:02.060 ,6,0,0.,12.0,0.,12.0,0.,12.0,0.,12.0
1986-01-25 19:15:14.060 ,7,1,0.,12.0,0.,12.0,0.,12.0,3.,12.0
1986-01-25 19:15:26.060 ,7,1,0.,12.0,0.,12.0,0.,12.0,1.,12.0
1986-01-25 19:15:38.060 ,7,0,0.,12.0,0.,12.0,0.,12.0,0.,12.0
1986-01-25 19:15:50.060 ,7,0,0.,12.0,0.,12.0,0.,12.0,0.,12.0
1986-01-25 19:16:02.060 ,7,1,0.,12.0,0.,12.0,0.,12.0,0.,12.0
1986-01-25 19:16:14.060 ,7,1,0.,12.0,0.,12.0,0.,12.0,0.,12.0
1986-01-25 19:16:26.060 ,7,0,0.,12.0,0.,12.0,0.,12.0,0.,12.0
1986-01-25 19:16:38.060 ,7,0,0.,12.0,0.,12.0,0.,12.0,0.,12.0
1986-01-25 19:16:50.060 ,6,1,0.,12.0,0.,12.0,0.,12.0,0.,12.0
1986-01-25 19:17:02.060 ,6,1,0.,12.0,0.,12.0,0.,12.0,0.,12.0
1986-01-25 19:17:14.060 ,6,0,0.,12.0,0.,12.0,0.,12.0,1.,12.0
1986-01-25 19:17:26.060 ,6,0,0.,12.0,0.,12.0,0.,12.0,0.,12.0